Location: La Oliva
(42.2466°N, 2.9955°E)
Time: 11:36:03
(UTC+00:00)

Hubble Space Telescope - Pass Details

Date: 22 April 2021
Orbit: 535 x 539 km, 28.5° (Epoch: 10 May)

Event Time Altitude Azimuth Distance (km) Brightness Sun altitude
Rises 20:20:43 0° 233° (SW) 2,670 4.5 -17.8°
Reaches altitude 10° 20:24:18 10° 201° (SSW) 1,779 3.2 -18.3°
Enters shadow 20:24:31 10° 198° (SSW) 1,750 3.2 -18.3°
